Regional Weather Roundup
Issued by NWS Charleston, WV

Home | Current Version | Previous Version | Graphics & Text | Print | Product List | Glossary On
Versions: 1 2 3 4 5 6 7 8 9 10 11 12 13 14 15 16 17 18 19 20 21 22 23 24 25 26 27 28 29 30 31 32 33 34 35 36 37 38 39 40 41 42 43 44 45 46 47 48 49 50
000
ASUS41 KRLX 172210
RWRRLX
West Virginia Regional Weather Roundup
National Weather Service Charleston WV
600 PM EDT FRI APR 17 2015

Note: "fair" indicates few or no clouds below 12,000 feet with no
significant weather and/or obstructions to visibility.

WVZ003-172300-
Northern Panhandle of West Virginia

CITY           SKY/WX    TMP DP  RH WIND       PRES   REMARKS
WHEELING       SUNNY     70  48  45 W8        30.01S
$$

WVZ009-172300-
Northwest West Virginia

CITY           SKY/WX    TMP DP  RH WIND       PRES   REMARKS
PARKERSBURG    MOSUNNY   75  51  43 NW6       30.02F
$$

WVZ006-172300-
Western West Virginia

CITY           SKY/WX    TMP DP  RH WIND       PRES   REMARKS
HUNTINGTON     PTSUNNY   74  57  55 N5        29.99F
$$

WVZ015-172300-
West Central West Virginia

CITY           SKY/WX    TMP DP  RH WIND       PRES   REMARKS
CHARLESTON     PTSUNNY   74  54  49 VRB3      30.00F
$$

WVZ022-031-172300-
North Central West Virginia

CITY           SKY/WX    TMP DP  RH WIND       PRES   REMARKS
CLARKSBURG     MOSUNNY   68  57  68 S7        30.02F
MORGANTOWN     PTSUNNY   70  53  54 SW6       30.02S
$$

WVZ025-035-042-045-172300-
Southern West Virginia

CITY           SKY/WX    TMP DP  RH WIND       PRES   REMARKS
BECKLEY        CLOUDY    71  50  47 N8        30.05S
LOGAN          PTSUNNY   72  54  53 CALM      29.99F
BLUEFIELD      PTSUNNY   75  46  35 N7        30.05F
LEWISBURG      PTSUNNY   73  49  41 NW3       30.04R
$$

WVZ047-172300-
Northern Mountains of West Virginia

CITY           SKY/WX    TMP DP  RH WIND       PRES   REMARKS
ELKINS         PTSUNNY   65  56  72 NW5       30.06F
$$

WVZ052-172300-
Eastern Panhandle of West Virginia

CITY           SKY/WX    TMP DP  RH WIND       PRES   REMARKS
MARTINSBURG    MOSUNNY   75  53  46 NW8       29.96S
PETERSBURG     CLOUDY    69  51  51 W12       30.01R
$$



USA.gov is the U.S. government's official web portal to all federal, state and local government web resources and services.